Location: Kunchanapalle
(16.4623°N, 80.6176°E)
Time: 08:28:25
(UTC+00:00)

SeaSat 1 - Pass Details

Date: 13 August 2020
Orbit: 744 x 748 km, 108.0° (Epoch: 18 September)

Event Time Altitude Azimuth Distance (km) Brightness Sun altitude
Rises 22:20:26 0° 16° (NNE) 3,184 6.3 -28.0°
Reaches altitude 10° 22:22:43 10° 13° (NNE) 2,260 5.4 -27.5°
Enters shadow 22:26:44 52° 335° (NNW) 920 2.8 -26.6°
